Overview Statistics Trail Chart Weather Telemetry Raw packets
 

This is the latest recevied weather packets stored in our database for station/object HG8LXL-2. If no packets are shown the sender has not sent any weather packets the latest 10 day(s).

<< 24 25 26 27 28 29 30 >>
Time Temp. Humidity Pressure Rain* Wind** Luminosity Snow
1788258951 31.67° C 25% 1015.3 hPa - - - -
1788258651 31.67° C 25% 1015.4 hPa - - - -
1788258351 31.11° C 25% 1015.4 hPa - - - -
1788258051 31.67° C 26% 1015.3 hPa - - - -
1788257751 31.67° C 26% 1015.3 hPa - - - -
1788257451 31.11° C 27% 1015.3 hPa - - - -
1788257152 30.56° C 27% 1015.4 hPa - - - -
1788256851 30.56° C 28% 1015.5 hPa - - - -
1788256551 30.56° C 28% 1015.5 hPa - - - -
1788256251 30.56° C 30% 1015.5 hPa - - - -
1788255959 30.56° C 29% 1015.5 hPa - - - -
1788255651 30.56° C 30% 1015.5 hPa - - - -
1788255351 30° C 31% 1015.5 hPa - - - -
1788255051 29.44° C 34% 1015.6 hPa - - - -
1788254756 29.44° C 33% 1015.6 hPa - - - -
1788254451 29.44° C 33% 1015.6 hPa - - - -
1788254159 28.89° C 33% 1015.6 hPa - - - -
1788253851 29.44° C 32% 1015.5 hPa - - - -
1788253552 29.44° C 31% 1015.5 hPa - - - -
1788253251 30.56° C 28% 1015.5 hPa - - - -
1788252951 31.11° C 28% 1015.4 hPa - - - -
1788252653 30.56° C 32% 1015.6 hPa - - - -
1788252351 29.44° C 30% 1015.5 hPa - - - -
1788252051 29.44° C 30% 1015.5 hPa - - - -
1788251751 30° C 31% 1015.5 hPa - - - -

* Rain since midnight (hover to see other rain measurements)
** Current wind speed in m/s (hover to see current wind gust speed)